Location: Fort Worth, Tx
(32.7431°N, 97.3695°W)
Time: 11:10:05
(UTC-04:00)

A-11 Canister half - Pass Details

Date: 13 August 2024
Orbit: 1524 x 1684 km, 47.3° (Epoch: 13 September)

Event Time Altitude Azimuth Distance (km) Brightness Sun altitude
Rises 22:18:13 0° 194° (SSW) 4,824 11.5 -13.0°
Reaches altitude 10° 22:21:48 10° 183° (S) 3,863 10.9 -13.6°
Maximum altitude 22:30:01 30° 127° (SE) 2,641 9.7 -15.2°
Drops below altitude 10° 22:38:22 10° 71° (ENE) 3,944 10.8 -16.7°
Sets 22:42:02 0° 61° (ENE) 4,939 11.4 -17.4°
